BADR-4

Last updated on Fri Feb 06 2026 00:02:49 GMT+0000 (Coordinated Universal Time)

1 29526U 06051A 26036.70387912 .00000143 00000+0 00000+0 0 9996 2 29526 1.6660 82.6336 0007840 244.2680 88.5330 1.00272554 49947
UTC large
Height (km)
Speed (km/s)
/
Latitude / Longitude
Inclination (degrees)
Orbital Period (minutes)
Azimuth
Elevation
Range (km)
Doppler Factor

Next 0 passes for location: London (51.5072 / 0.1276)

Sorry there are no passes over London.